Accueil
METAR-TAF:

METAR-TAF

Aéroports :

Aéroport de Morlaix Ploujean

Morlaix, France

latitude: 48-36N, longitude: 3-49W, altitude: 84 m

Observation

Le bulletin a été fait il y a 21 minutes, à 15:30 UTC
Vent 14 kt de nord/nord-est
Température 15°C
Humidité 63%
Pression 1028 hPa
Visibilité 10 km ou plus
Quelques nuages à une hauteur de 2600 ft

METAR: LFRU 211530Z AUTO 03014KT 9999 FEW026 15/08 Q1028

Heure: 17:51 (15:51 UTC)


TAF: absent

Observations et prévisions météorologiques de plus de 4000 aéroports (messages METAR et TAF).

Les stations disponibles sont représentées par des disques jaunes et rouges sur la carte.

Passer la souris dessus pour voir le nom de la station.

Cliquer dessus pour voir les observations et prévisions météorologiques.

Pour changer de carte: cliquez sur les boutons verts avec une croix noire pour zoomer, sur le bouton vert avec un tiret pour effectuer un zoom arrière, ou sur les flèches vertes pour les cartes adjacentes.


METAR-TAF: